{"data":{"norad_id":27939,"epoch":"2026-05-25T04:50:58.658784Z","epoch_age_seconds":53446,"freshness":"FRESH","line1":"1 27939U 03042A   26145.20206781  .00000379  00000+0  66769-4 0  9999","line2":"2 27939  98.3475 328.9125 0011018 348.6255 130.9673 14.73418067212164","mean_motion":14.73418067,"eccentricity":0.0011018,"inclination_deg":98.3475,"raan_deg":328.9125,"arg_perigee_deg":348.6255,"mean_anomaly_deg":130.9673,"bstar":6.6769e-5,"rev_number":21216,"period_min":97.731935847099,"perigee_km":642.43360401876,"apogee_km":657.92119763242,"semimajor_km":7028.3144008256,"source":"CELESTRAK","updated_at":"2026-05-25T13:38:23.281897Z"}}